Location: Newark
(60.6561°N, 46.5772°E)
Time: 04:26:26
(UTC+00:00)

BUGSAT 1 - Visible Passes

Search period start: 26 November 2020 00:00
Search period end: 06 December 2020 00:00
Orbit: 558 x 603 km, 98.1° (Epoch: 25 November)

Date Brightness Start Highest point End Pass type
(mag) Time Alt. Az. Time Alt. Az. Time Alt. Az.
26 Nov ? 01:30:01 10° NNE 01:31:09 18° NNE 01:31:09 18° NNE visible
26 Nov ? 03:06:06 10° N 03:07:29 15° NNW 03:07:29 15° NNW visible
27 Nov ? 01:35:08 10° NNE 01:36:12 18° N 01:36:12 18° N visible
27 Nov ? 03:11:18 10° N 03:12:32 14° NNW 03:12:32 14° NNW visible
28 Nov ? 01:40:16 10° NNE 01:41:16 17° N 01:41:16 17° N visible
28 Nov ? 03:16:30 10° N 03:17:36 13° NNW 03:17:36 13° NNW visible
29 Nov ? 01:45:24 10° NNE 01:46:20 16° N 01:46:20 16° N visible
29 Nov ? 03:21:43 10° NNW 03:22:39 13° NNW 03:22:39 13° NNW visible
29 Nov ? 12:45:23 10° SW 12:48:30 21° W 12:51:37 10° NW visible
30 Nov ? 01:50:31 10° N 01:51:24 16° N 01:51:24 16° N visible
30 Nov ? 03:26:57 10° NNW 03:27:44 12° NNW 03:27:44 12° NNW visible
30 Nov ? 12:50:42 10° SW 12:53:41 19° W 12:56:38 10° NW visible
01 Dec ? 01:55:40 10° N 01:56:28 15° N 01:56:28 15° N visible
01 Dec ? 03:32:12 10° NNW 03:32:49 11° NNW 03:32:49 11° NNW visible
01 Dec ? 12:56:03 10° SW 12:58:50 18° W 13:01:38 10° NW visible
02 Dec ? 02:00:48 10° N 02:01:33 15° N 02:01:33 15° N visible
02 Dec ? 03:37:28 10° NNW 03:37:53 11° NNW 03:37:53 11° NNW visible
02 Dec ? 13:01:25 10° SW 13:04:01 16° W 13:06:37 10° NW visible
03 Dec ? 02:05:56 10° N 02:06:38 14° N 02:06:38 14° N visible
03 Dec ? 03:42:47 10° NNW 03:42:58 10° NNW 03:42:58 10° NNW visible
03 Dec ? 13:06:49 10° WSW 13:09:11 15° W 13:11:34 10° NW visible
04 Dec ? 02:11:05 10° N 02:11:43 14° N 02:11:43 14° N visible
04 Dec ? 13:12:15 10° WSW 13:14:22 14° W 13:16:30 10° NW visible
05 Dec ? 02:16:13 10° N 02:16:48 13° N 02:16:48 13° N visible
05 Dec ? 13:17:44 10° WSW 13:19:33 13° W 13:21:22 10° WNW visible
